カタログに戻る

DELTA 1 DEB

運用中UNKNOWN
NORAD 10715·DEBRIS·🇺🇸 United States

打ち上げ Jul 29, 1976 から Vandenberg Space Force Base

Loading…

次のパス (今後24時間)

TLE

最新Source: Space-Track

元期: Sep 14, 2026, 06:06 UTC

1 10715U 76077AL  26257.25429744 -.00000009  00000-0  41292-3 0  9991
2 10715 102.5617   8.7402 0435231  91.4720 300.1516 11.63952636132554

AllMySatでDELTA 1 DEBをリアルタイム追跡

Download on the App Store